Hourly Data Report for June 16, 2012

HALIFAX STANFIELD INT'L A
NOVA SCOTIA

44°52'48.060" N
63°30'00.050" W
145.40 m
8202250
71395
YHZ

Download Data

Hourly Data (June 2012)
Hourly Data Report for June 16, 2012
TIME
LST
Temp Definition
°C
Dew Point Definition
°C
Rel Hum Definition
%
Precip. Amount Definition
mm

Wind Dir Definition
10's deg

Wind Spd Definition
km/h
Visibility Definition
km
Stn Press Definition
kPa
Hmdx Definition


Wind Chill Definition


Weather Definition


00:00 11.3 10.2 93   5 9 19.3 100.92     Cloudy
01:00 10.5 9.9 96   3 13 12.9 100.91     Mostly Cloudy
02:00 9.9 9.5 97   3 17 6.4 100.93     Fog
03:00 8.9 8.6 98   2 11 8.0 100.96     Fog
04:00 8.9 8.5 97   3 19 3.2 100.98     Fog
05:00 8.4 8.1 98   2 13 2.4 101.02     Fog
06:00 9.3 8.4 94   4 19 24.1 101.06     Mainly Clear
07:00 10.4 8.8 90   4 13 24.1 101.09     Mostly Cloudy
08:00 13.9 9.0 72   6 20 24.1 101.06     Mainly Clear
09:00 14.5 7.6 63   7 24 24.1 101.07     Mostly Cloudy
10:00 16.6 7.7 56   6 22 24.1 101.07     Mostly Cloudy
11:00 15.9 7.2 56   5 20 24.1 101.07     Cloudy
12:00 16.8 7.4 54   8 22 24.1 101.03     Cloudy
13:00 17.4 7.6 53   10 19 24.1 101.03     Cloudy
14:00 17.7 6.2 47   9 13 24.1 101.01     Mostly Cloudy
15:00 17.1 7.5 53   10 19 24.1 100.98     Mostly Cloudy
16:00 16.2 7.0 54   14 19 24.1 100.96     Mostly Cloudy
17:00 15.6 6.5 55   14 17 24.1 100.92     Mainly Clear
18:00 14.6 6.4 58   12 19 24.1 100.95     Mainly Clear
19:00 13.2 6.1 62   16 11 24.1 100.95     Mostly Cloudy
20:00 10.9 5.8 71   16 6 24.1 100.95     Mostly Cloudy
21:00 10.5 5.6 72   14 7 24.1 100.96     Mainly Clear
22:00 9.4 5.4 76   12 15 24.1 100.96     Mainly Clear
23:00 8.6 4.7 76   10 9 24.1 100.94     Mainly Clear

Notes on Data Quality.

Legend

  • E = Estimated
  • M = Missing
  • NA = Not Available*
  • [empty] = Indicates an unobserved value
Date modified: